Year,Month,Day,Hour,Minute,Value (Times are PST for temperature in C)
2006,06,26,00,00,15.50
2006,06,26,00,01,15.50
2006,06,26,00,02,15.50
2006,06,26,00,03,15.50
2006,06,26,00,04,15.50
2006,06,26,00,05,15.40
2006,06,26,00,06,15.40
2006,06,26,00,07,15.40
2006,06,26,00,08,15.40
2006,06,26,00,09,15.40
2006,06,26,00,10,15.40
2006,06,26,00,11,15.30
2006,06,26,00,12,15.30
2006,06,26,00,13,15.30
2006,06,26,00,14,15.30
2006,06,26,00,15,15.30
2006,06,26,00,16,15.30
2006,06,26,00,17,15.30
2006,06,26,00,18,15.30
2006,06,26,00,19,15.20
2006,06,26,00,20,15.20
2006,06,26,00,21,15.20
2006,06,26,00,22,15.20
2006,06,26,00,23,15.20
2006,06,26,00,24,15.20
2006,06,26,00,25,15.20
2006,06,26,00,26,15.10
2006,06,26,00,27,15.10
2006,06,26,00,28,15.10
2006,06,26,00,29,15.10
2006,06,26,00,30,15.10
2006,06,26,00,31,15.00
2006,06,26,00,32,15.00
2006,06,26,00,33,15.00
2006,06,26,00,34,15.00
2006,06,26,00,35,14.90
2006,06,26,00,36,14.90
2006,06,26,00,37,14.90
2006,06,26,00,38,14.90
2006,06,26,00,39,14.90
2006,06,26,00,40,14.80
2006,06,26,00,41,14.80
2006,06,26,00,42,14.80
2006,06,26,00,43,14.80
2006,06,26,00,44,14.80
2006,06,26,00,45,14.80
2006,06,26,00,46,14.80
2006,06,26,00,47,14.80
2006,06,26,00,48,14.80
2006,06,26,00,49,14.80
2006,06,26,00,50,14.80
2006,06,26,00,51,14.70
2006,06,26,00,52,14.70
2006,06,26,00,53,14.70
2006,06,26,00,54,14.70
2006,06,26,00,55,14.70
2006,06,26,00,56,14.70
2006,06,26,00,57,14.60
2006,06,26,00,58,14.60
2006,06,26,00,59,14.60
2006,06,26,01,00,14.60
2006,06,26,01,01,14.60
2006,06,26,01,02,14.60
2006,06,26,01,03,14.50
2006,06,26,01,04,14.50
2006,06,26,01,05,14.50
2006,06,26,01,06,14.50
2006,06,26,01,07,14.50
2006,06,26,01,08,14.50
2006,06,26,01,09,14.40
2006,06,26,01,10,14.40
2006,06,26,01,11,14.40
2006,06,26,01,12,14.40
2006,06,26,01,13,14.40
2006,06,26,01,14,14.40
2006,06,26,01,15,14.40
2006,06,26,01,16,14.30
2006,06,26,01,17,14.30
2006,06,26,01,18,14.30
2006,06,26,01,19,14.30
2006,06,26,01,20,14.30
2006,06,26,01,21,14.30
2006,06,26,01,22,14.30
2006,06,26,01,23,14.30
2006,06,26,01,24,14.20
2006,06,26,01,25,14.20
2006,06,26,01,26,14.20
2006,06,26,01,27,14.20
2006,06,26,01,28,14.20
2006,06,26,01,29,14.20
2006,06,26,01,30,14.20
2006,06,26,01,31,14.20
2006,06,26,01,32,14.20
2006,06,26,01,33,14.20
2006,06,26,01,34,14.20
2006,06,26,01,35,14.10
2006,06,26,01,36,14.10
2006,06,26,01,37,14.10
2006,06,26,01,38,14.10
2006,06,26,01,39,14.10
2006,06,26,01,40,14.00
2006,06,26,01,41,14.00
2006,06,26,01,42,14.00
2006,06,26,01,43,14.00
2006,06,26,01,44,14.00
2006,06,26,01,45,13.90
2006,06,26,01,46,13.90
2006,06,26,01,47,13.90
2006,06,26,01,48,13.90
2006,06,26,01,49,13.90
2006,06,26,01,50,13.90
2006,06,26,01,51,13.80
2006,06,26,01,52,13.80
2006,06,26,01,53,13.80
2006,06,26,01,54,13.80
2006,06,26,01,55,13.70
2006,06,26,01,56,13.70
2006,06,26,01,57,13.70
2006,06,26,01,58,13.70
2006,06,26,01,59,13.70
2006,06,26,02,00,13.70
2006,06,26,02,01,13.70
2006,06,26,02,02,13.70
2006,06,26,02,03,13.60
2006,06,26,02,04,13.60
2006,06,26,02,05,13.60
2006,06,26,02,06,13.60
2006,06,26,02,07,13.50
2006,06,26,02,08,13.50
2006,06,26,02,09,13.50
2006,06,26,02,10,13.50
2006,06,26,02,11,13.50
2006,06,26,02,12,13.50
2006,06,26,02,13,13.40
2006,06,26,02,14,13.40
2006,06,26,02,15,13.40
2006,06,26,02,16,13.40
2006,06,26,02,17,13.40
2006,06,26,02,18,13.40
2006,06,26,02,19,13.40
2006,06,26,02,20,13.40
2006,06,26,02,21,13.40
2006,06,26,02,22,13.40
2006,06,26,02,23,13.30
2006,06,26,02,24,13.30
2006,06,26,02,25,13.30
2006,06,26,02,26,13.30
2006,06,26,02,27,13.30
2006,06,26,02,28,13.30
2006,06,26,02,29,13.30
2006,06,26,02,30,13.30
2006,06,26,02,31,13.30
2006,06,26,02,32,13.30
2006,06,26,02,33,13.30
2006,06,26,02,34,13.30
2006,06,26,02,35,13.30
2006,06,26,02,36,13.30
2006,06,26,02,37,13.30
2006,06,26,02,38,13.30
2006,06,26,02,39,13.30
2006,06,26,02,40,13.30
2006,06,26,02,41,13.30
2006,06,26,02,42,13.30
2006,06,26,02,43,13.30
2006,06,26,02,44,13.20
2006,06,26,02,45,13.20
2006,06,26,02,46,13.20
2006,06,26,02,47,13.20
2006,06,26,02,48,13.20
2006,06,26,02,49,13.20
2006,06,26,02,50,13.10
2006,06,26,02,51,13.10
2006,06,26,02,52,13.10
2006,06,26,02,53,13.10
2006,06,26,02,54,13.10
2006,06,26,02,55,13.00
2006,06,26,02,56,13.00
2006,06,26,02,57,13.00
2006,06,26,02,58,13.00
2006,06,26,02,59,13.00
2006,06,26,03,00,12.90
2006,06,26,03,01,12.90
2006,06,26,03,02,12.90
2006,06,26,03,03,12.90
2006,06,26,03,04,12.90
2006,06,26,03,05,12.80
2006,06,26,03,06,12.80
2006,06,26,03,07,12.80
2006,06,26,03,08,12.80
2006,06,26,03,09,12.80
2006,06,26,03,10,12.80
2006,06,26,03,11,12.80
2006,06,26,03,12,12.80
2006,06,26,03,13,12.80
2006,06,26,03,14,12.80
2006,06,26,03,15,12.80
2006,06,26,03,16,12.80
2006,06,26,03,17,12.80
2006,06,26,03,18,12.80
2006,06,26,03,19,12.80
2006,06,26,03,20,12.80
2006,06,26,03,21,12.80
2006,06,26,03,22,12.80
2006,06,26,03,23,12.70
2006,06,26,03,24,12.70
2006,06,26,03,25,12.70
2006,06,26,03,26,12.70
2006,06,26,03,27,12.70
2006,06,26,03,28,12.70
2006,06,26,03,29,12.70
2006,06,26,03,30,12.60
2006,06,26,03,31,12.60
2006,06,26,03,32,12.60
2006,06,26,03,33,12.60
2006,06,26,03,34,12.60
2006,06,26,03,35,12.60
2006,06,26,03,36,12.50
2006,06,26,03,37,12.50
2006,06,26,03,38,12.50
2006,06,26,03,39,12.50
2006,06,26,03,40,12.50
2006,06,26,03,41,12.50
2006,06,26,03,42,12.50
2006,06,26,03,43,12.40
2006,06,26,03,44,12.40
2006,06,26,03,45,12.40
2006,06,26,03,46,12.40
2006,06,26,03,47,12.40
2006,06,26,03,48,12.40
2006,06,26,03,49,12.40
2006,06,26,03,50,12.40
2006,06,26,03,51,12.40
2006,06,26,03,52,12.40
2006,06,26,03,53,12.40
2006,06,26,03,54,12.40
2006,06,26,03,55,12.40
2006,06,26,03,56,12.40
2006,06,26,03,57,12.40
2006,06,26,03,58,12.30
2006,06,26,03,59,12.30
2006,06,26,04,00,12.30
2006,06,26,04,01,12.30
2006,06,26,04,02,12.30
2006,06,26,04,03,12.30
2006,06,26,04,04,12.30
2006,06,26,04,05,12.30
2006,06,26,04,06,12.30
2006,06,26,04,07,12.30
2006,06,26,04,08,12.30
2006,06,26,04,09,12.30
2006,06,26,04,10,12.30
2006,06,26,04,11,12.30
2006,06,26,04,12,12.30
2006,06,26,04,13,12.30
2006,06,26,04,14,12.30
2006,06,26,04,15,12.30
2006,06,26,04,16,12.30
2006,06,26,04,17,12.20
2006,06,26,04,18,12.20
2006,06,26,04,19,12.20
2006,06,26,04,20,12.20
2006,06,26,04,21,12.20
2006,06,26,04,22,12.20
2006,06,26,04,23,12.20
2006,06,26,04,24,12.10
2006,06,26,04,25,12.10
2006,06,26,04,26,12.10
2006,06,26,04,27,12.10
2006,06,26,04,28,12.10
2006,06,26,04,29,12.10
2006,06,26,04,30,12.10
2006,06,26,04,31,12.10
2006,06,26,04,32,12.10
2006,06,26,04,33,12.10
2006,06,26,04,34,12.10
2006,06,26,04,35,12.10
2006,06,26,04,36,12.10
2006,06,26,04,37,12.10
2006,06,26,04,38,12.10
2006,06,26,04,39,12.10
2006,06,26,04,40,12.10
2006,06,26,04,41,12.10
2006,06,26,04,42,12.10
2006,06,26,04,43,12.00
2006,06,26,04,44,12.00
2006,06,26,04,45,12.00
2006,06,26,04,46,12.00
2006,06,26,04,47,12.00
2006,06,26,04,48,12.00
2006,06,26,04,49,12.00
2006,06,26,04,50,12.00
2006,06,26,04,51,12.00
2006,06,26,04,52,11.90
2006,06,26,04,53,11.90
2006,06,26,04,54,11.90
2006,06,26,04,55,11.90
2006,06,26,04,56,11.90
2006,06,26,04,57,11.90
2006,06,26,04,58,11.80
2006,06,26,04,59,11.80
2006,06,26,05,00,11.80
2006,06,26,05,01,11.80
2006,06,26,05,02,11.80
2006,06,26,05,03,11.80
2006,06,26,05,04,11.80
2006,06,26,05,05,11.80
2006,06,26,05,06,11.80
2006,06,26,05,07,11.80
2006,06,26,05,08,11.80
2006,06,26,05,09,11.80
2006,06,26,05,10,11.80
2006,06,26,05,11,11.80
2006,06,26,05,12,11.80
2006,06,26,05,13,11.70
2006,06,26,05,14,11.70
2006,06,26,05,15,11.70
2006,06,26,05,16,11.70
2006,06,26,05,17,11.70
2006,06,26,05,18,11.70
2006,06,26,05,19,11.70
2006,06,26,05,20,11.70
2006,06,26,05,21,11.70
2006,06,26,05,22,11.70
2006,06,26,05,23,11.70
2006,06,26,05,24,11.70
2006,06,26,05,25,11.70
2006,06,26,05,26,11.70
2006,06,26,05,27,11.70
2006,06,26,05,28,11.70
2006,06,26,05,29,11.70
2006,06,26,05,30,11.70
2006,06,26,05,31,11.70
2006,06,26,05,32,11.70
2006,06,26,05,33,11.60
2006,06,26,05,34,11.60
2006,06,26,05,35,11.60
2006,06,26,05,36,11.60
2006,06,26,05,37,11.60
2006,06,26,05,38,11.60
2006,06,26,05,39,11.60
2006,06,26,05,40,11.60
2006,06,26,05,41,11.60
2006,06,26,05,42,11.60
2006,06,26,05,43,11.60
2006,06,26,05,44,11.60
2006,06,26,05,45,11.60
2006,06,26,05,46,11.60
2006,06,26,05,47,11.60
2006,06,26,05,48,11.60
2006,06,26,05,49,11.60
2006,06,26,05,50,11.60
2006,06,26,05,51,11.60
2006,06,26,05,52,11.60
2006,06,26,05,53,11.60
2006,06,26,05,54,11.60
2006,06,26,05,55,11.60
2006,06,26,05,56,11.60
2006,06,26,05,57,11.60
2006,06,26,05,58,11.60
2006,06,26,05,59,11.60
2006,06,26,06,00,11.60
2006,06,26,06,01,11.60
2006,06,26,06,02,11.60
2006,06,26,06,03,11.60
2006,06,26,06,04,11.60
2006,06,26,06,05,11.60
2006,06,26,06,06,11.60
2006,06,26,06,07,11.60
2006,06,26,06,08,11.60
2006,06,26,06,09,11.60
2006,06,26,06,10,11.60
2006,06,26,06,11,11.60
2006,06,26,06,12,11.60
2006,06,26,06,13,11.60
2006,06,26,06,14,11.70
2006,06,26,06,15,11.70
2006,06,26,06,16,11.80
2006,06,26,06,17,11.80
2006,06,26,06,18,11.80
2006,06,26,06,19,11.90
2006,06,26,06,20,12.00
2006,06,26,06,21,12.10
2006,06,26,06,22,12.20
2006,06,26,06,23,12.30
2006,06,26,06,24,12.40
2006,06,26,06,25,12.50
2006,06,26,06,26,12.60
2006,06,26,06,27,12.70
2006,06,26,06,28,12.90
2006,06,26,06,29,13.00
2006,06,26,06,30,13.10
2006,06,26,06,31,13.20
2006,06,26,06,32,13.30
2006,06,26,06,33,13.50
2006,06,26,06,34,13.60
2006,06,26,06,35,13.70
2006,06,26,06,36,13.80
2006,06,26,06,37,13.90
2006,06,26,06,38,14.00
2006,06,26,06,39,14.10
2006,06,26,06,40,14.20
2006,06,26,06,41,14.20
2006,06,26,06,42,14.30
2006,06,26,06,43,14.40
2006,06,26,06,44,14.50
2006,06,26,06,45,14.50
2006,06,26,06,46,14.60
2006,06,26,06,47,14.60
2006,06,26,06,48,14.70
2006,06,26,06,49,14.80
2006,06,26,06,50,14.80
2006,06,26,06,51,14.90
2006,06,26,06,52,15.00
2006,06,26,06,53,15.10
2006,06,26,06,54,15.10
2006,06,26,06,55,15.20
2006,06,26,06,56,15.30
2006,06,26,06,57,15.40
2006,06,26,06,58,15.50
2006,06,26,06,59,15.60
2006,06,26,07,00,15.70
2006,06,26,07,01,15.80
2006,06,26,07,02,15.80
2006,06,26,07,03,15.90
2006,06,26,07,04,15.90
2006,06,26,07,05,16.00
2006,06,26,07,06,16.10
2006,06,26,07,07,16.10
2006,06,26,07,08,16.20
2006,06,26,07,09,16.20
2006,06,26,07,10,16.20
2006,06,26,07,11,16.20
2006,06,26,07,12,16.20
2006,06,26,07,13,16.30
2006,06,26,07,14,16.30
2006,06,26,07,15,16.40
2006,06,26,07,16,16.40
2006,06,26,07,17,16.50
2006,06,26,07,18,16.60
2006,06,26,07,19,16.70
2006,06,26,07,20,16.70
2006,06,26,07,21,16.80
2006,06,26,07,22,16.90
2006,06,26,07,23,16.90
2006,06,26,07,24,17.00
2006,06,26,07,25,17.10
2006,06,26,07,26,17.10
2006,06,26,07,27,17.20
2006,06,26,07,28,17.30
2006,06,26,07,29,17.40
2006,06,26,07,30,17.50
2006,06,26,07,31,17.60
2006,06,26,07,32,17.70
2006,06,26,07,33,17.80
2006,06,26,07,34,17.90
2006,06,26,07,35,18.00
2006,06,26,07,36,18.10
2006,06,26,07,37,18.20
2006,06,26,07,38,18.30
2006,06,26,07,39,18.40
2006,06,26,07,40,18.50
2006,06,26,07,41,18.60
2006,06,26,07,42,18.70
2006,06,26,07,43,18.80
2006,06,26,07,44,18.90
2006,06,26,07,45,19.00
2006,06,26,07,46,19.10
2006,06,26,07,47,19.20
2006,06,26,07,48,19.30
2006,06,26,07,49,19.40
2006,06,26,07,50,19.40
2006,06,26,07,51,19.50
2006,06,26,07,52,19.50
2006,06,26,07,53,19.60
2006,06,26,07,54,19.70
2006,06,26,07,55,19.80
2006,06,26,07,56,19.90
2006,06,26,07,57,19.90
2006,06,26,07,58,20.10
2006,06,26,07,59,20.20
2006,06,26,08,00,20.30
2006,06,26,08,01,20.40
2006,06,26,08,02,20.50
2006,06,26,08,03,20.70
2006,06,26,08,04,20.80
2006,06,26,08,05,20.90
2006,06,26,08,06,21.00
2006,06,26,08,07,21.20
2006,06,26,08,08,21.30
2006,06,26,08,09,21.50
2006,06,26,08,10,21.60
2006,06,26,08,11,21.80
2006,06,26,08,12,22.00
2006,06,26,08,13,22.10
2006,06,26,08,14,22.20
2006,06,26,08,15,22.30
2006,06,26,08,16,22.40
2006,06,26,08,17,22.50
2006,06,26,08,18,22.50
2006,06,26,08,19,22.60
2006,06,26,08,20,22.70
2006,06,26,08,21,22.70
2006,06,26,08,22,22.80
2006,06,26,08,23,22.80
2006,06,26,08,24,22.80
2006,06,26,08,25,22.90
2006,06,26,08,26,22.90
2006,06,26,08,27,22.90
2006,06,26,08,28,22.90
2006,06,26,08,29,22.90
2006,06,26,08,30,22.90
2006,06,26,08,31,22.90
2006,06,26,08,32,23.00
2006,06,26,08,33,23.10
2006,06,26,08,34,23.10
2006,06,26,08,35,23.10
2006,06,26,08,36,23.20
2006,06,26,08,37,23.30
2006,06,26,08,38,23.30
2006,06,26,08,39,23.30
2006,06,26,08,40,23.30
2006,06,26,08,41,23.40
2006,06,26,08,42,23.40
2006,06,26,08,43,23.50
2006,06,26,08,44,23.60
2006,06,26,08,45,23.70
2006,06,26,08,46,23.70
2006,06,26,08,47,23.70
2006,06,26,08,48,23.80
2006,06,26,08,49,23.90
2006,06,26,08,50,23.90
2006,06,26,08,51,24.00
2006,06,26,08,52,24.10
2006,06,26,08,53,24.10
2006,06,26,08,54,24.10
2006,06,26,08,55,24.10
2006,06,26,08,56,24.10
2006,06,26,08,57,24.10
2006,06,26,08,58,24.10
2006,06,26,08,59,24.10
2006,06,26,09,00,24.10
2006,06,26,09,01,24.20
2006,06,26,09,02,24.20
2006,06,26,09,03,24.20
2006,06,26,09,04,24.20
2006,06,26,09,05,24.20
2006,06,26,09,06,24.10
2006,06,26,09,07,24.20
2006,06,26,09,08,24.20
2006,06,26,09,09,24.20
2006,06,26,09,10,24.30
2006,06,26,09,11,24.40
2006,06,26,09,12,24.40
2006,06,26,09,13,24.50
2006,06,26,09,14,24.60
2006,06,26,09,15,24.70
2006,06,26,09,16,24.80
2006,06,26,09,17,24.90
2006,06,26,09,18,25.00
2006,06,26,09,19,25.10
2006,06,26,09,20,25.20
2006,06,26,09,21,25.30
2006,06,26,09,22,25.30
2006,06,26,09,23,25.30
2006,06,26,09,24,25.30
2006,06,26,09,25,25.30
2006,06,26,09,26,25.40
2006,06,26,09,27,25.40
2006,06,26,09,28,25.40
2006,06,26,09,29,25.40
2006,06,26,09,30,25.50
2006,06,26,09,31,25.50
2006,06,26,09,32,25.50
2006,06,26,09,33,25.60
2006,06,26,09,34,25.60
2006,06,26,09,35,25.70
2006,06,26,09,36,25.70
2006,06,26,09,37,25.70
2006,06,26,09,38,25.70
2006,06,26,09,39,25.80
2006,06,26,09,40,25.80
2006,06,26,09,41,25.90
2006,06,26,09,42,25.90
2006,06,26,09,43,25.90
2006,06,26,09,44,25.80
2006,06,26,09,45,25.80
2006,06,26,09,46,25.70
2006,06,26,09,47,25.70
2006,06,26,09,48,25.80
2006,06,26,09,49,25.80
2006,06,26,09,50,25.80
2006,06,26,09,51,25.80
2006,06,26,09,52,25.80
2006,06,26,09,53,25.80
2006,06,26,09,54,25.80
2006,06,26,09,55,25.80
2006,06,26,09,56,25.80
2006,06,26,09,57,25.80
2006,06,26,09,58,25.90
2006,06,26,09,59,25.90
2006,06,26,10,00,25.90
2006,06,26,10,01,25.90
2006,06,26,10,02,26.00
2006,06,26,10,03,26.00
2006,06,26,10,04,26.00
2006,06,26,10,05,26.00
2006,06,26,10,06,26.00
2006,06,26,10,07,26.10
2006,06,26,10,08,26.10
2006,06,26,10,09,26.10
2006,06,26,10,10,26.10
2006,06,26,10,11,26.10
2006,06,26,10,12,26.20
2006,06,26,10,13,26.20
2006,06,26,10,14,26.30
2006,06,26,10,15,26.30
2006,06,26,10,16,26.30
2006,06,26,10,17,26.30
2006,06,26,10,18,26.40
2006,06,26,10,19,26.40
2006,06,26,10,20,26.40
2006,06,26,10,21,26.30
2006,06,26,10,22,26.40
2006,06,26,10,23,26.40
2006,06,26,10,24,26.50
2006,06,26,10,25,26.60
2006,06,26,10,26,26.60
2006,06,26,10,27,26.60
2006,06,26,10,28,26.60
2006,06,26,10,29,26.60
2006,06,26,10,30,26.60
2006,06,26,10,31,26.70
2006,06,26,10,32,26.70
2006,06,26,10,33,26.80
2006,06,26,10,34,26.80
2006,06,26,10,35,26.80
2006,06,26,10,36,26.90
2006,06,26,10,37,26.90
2006,06,26,10,38,26.90
2006,06,26,10,39,26.80
2006,06,26,10,40,26.80
2006,06,26,10,41,26.70
2006,06,26,10,42,26.60
2006,06,26,10,43,26.40
2006,06,26,10,44,26.30
2006,06,26,10,45,26.20
2006,06,26,10,46,26.20
2006,06,26,10,47,26.00
2006,06,26,10,48,25.90
2006,06,26,10,49,25.80
2006,06,26,10,50,25.70
2006,06,26,10,51,25.80
2006,06,26,10,52,25.90
2006,06,26,10,53,26.00
2006,06,26,10,54,26.10
2006,06,26,10,55,26.20
2006,06,26,10,56,26.40
2006,06,26,10,57,26.40
2006,06,26,10,58,26.40
2006,06,26,10,59,26.40
2006,06,26,11,00,26.50
2006,06,26,11,01,26.50
2006,06,26,11,02,26.40
2006,06,26,11,03,26.40
2006,06,26,11,04,26.40
2006,06,26,11,05,26.40
2006,06,26,11,06,26.50
2006,06,26,11,07,26.60
2006,06,26,11,08,26.70
2006,06,26,11,09,26.90
2006,06,26,11,10,27.10
2006,06,26,11,11,27.20
2006,06,26,11,12,27.30
2006,06,26,11,13,27.40
2006,06,26,11,14,27.40
2006,06,26,11,15,27.40
2006,06,26,11,16,27.40
2006,06,26,11,17,27.30
2006,06,26,11,18,27.30
2006,06,26,11,19,27.40
2006,06,26,11,20,27.40
2006,06,26,11,21,27.40
2006,06,26,11,22,27.50
2006,06,26,11,23,27.60
2006,06,26,11,24,27.60
2006,06,26,11,25,27.60
2006,06,26,11,26,27.70
2006,06,26,11,27,27.70
2006,06,26,11,28,27.70
2006,06,26,11,29,27.60
2006,06,26,11,30,27.60
2006,06,26,11,31,27.60
2006,06,26,11,32,27.50
2006,06,26,11,33,27.50
2006,06,26,11,34,27.50
2006,06,26,11,35,27.30
2006,06,26,11,36,27.30
2006,06,26,11,37,27.10
2006,06,26,11,38,27.00
2006,06,26,11,39,26.80
2006,06,26,11,40,26.80
2006,06,26,11,41,26.80
2006,06,26,11,42,26.80
2006,06,26,11,43,26.90
2006,06,26,11,44,27.00
2006,06,26,11,45,27.10
2006,06,26,11,46,27.20
2006,06,26,11,47,27.30
2006,06,26,11,48,27.40
2006,06,26,11,49,27.50
2006,06,26,11,50,27.60
2006,06,26,11,51,27.70
2006,06,26,11,52,27.80
2006,06,26,11,53,27.70
2006,06,26,11,54,27.70
2006,06,26,11,55,27.70
2006,06,26,11,56,27.60
2006,06,26,11,57,27.60
2006,06,26,11,58,27.60
2006,06,26,11,59,27.60
2006,06,26,12,00,27.50
2006,06,26,12,01,27.40
2006,06,26,12,02,27.40
2006,06,26,12,03,27.40
2006,06,26,12,04,27.40
2006,06,26,12,05,27.40
2006,06,26,12,06,27.40
2006,06,26,12,07,27.40
2006,06,26,12,08,27.40
2006,06,26,12,09,27.30
2006,06,26,12,10,27.30
2006,06,26,12,11,27.20
2006,06,26,12,12,27.20
2006,06,26,12,13,27.30
2006,06,26,12,14,27.30
2006,06,26,12,15,27.30
2006,06,26,12,16,27.30
2006,06,26,12,17,27.30
2006,06,26,12,18,27.30
2006,06,26,12,19,27.30
2006,06,26,12,20,27.30
2006,06,26,12,21,27.30
2006,06,26,12,22,27.30
2006,06,26,12,23,27.30
2006,06,26,12,24,27.30
2006,06,26,12,25,27.40
2006,06,26,12,26,27.50
2006,06,26,12,27,27.60
2006,06,26,12,28,27.80
2006,06,26,12,29,27.80
2006,06,26,12,30,27.90
2006,06,26,12,31,28.00
2006,06,26,12,32,28.10
2006,06,26,12,33,28.20
2006,06,26,12,34,28.30
2006,06,26,12,35,28.20
2006,06,26,12,36,28.10
2006,06,26,12,37,28.10
2006,06,26,12,38,28.10
2006,06,26,12,39,28.20
2006,06,26,12,40,28.30
2006,06,26,12,41,28.30
2006,06,26,12,42,28.30
2006,06,26,12,43,28.30
2006,06,26,12,44,28.20
2006,06,26,12,45,28.10
2006,06,26,12,46,28.00
2006,06,26,12,47,28.00
2006,06,26,12,48,27.90
2006,06,26,12,49,27.90
2006,06,26,12,50,27.90
2006,06,26,12,51,27.90
2006,06,26,12,52,27.90
2006,06,26,12,53,27.90
2006,06,26,12,54,27.90
2006,06,26,12,55,27.90
2006,06,26,12,56,27.90
2006,06,26,12,57,27.90
2006,06,26,12,58,27.90
2006,06,26,12,59,28.00
2006,06,26,13,00,28.10
2006,06,26,13,01,28.20
2006,06,26,13,02,28.20
2006,06,26,13,03,28.20
2006,06,26,13,04,28.20
2006,06,26,13,05,28.30
2006,06,26,13,06,28.30
2006,06,26,13,07,28.30
2006,06,26,13,08,28.30
2006,06,26,13,09,28.20
2006,06,26,13,10,28.20
2006,06,26,13,11,28.10
2006,06,26,13,12,28.10
2006,06,26,13,13,28.10
2006,06,26,13,14,28.10
2006,06,26,13,15,28.20
2006,06,26,13,16,28.20
2006,06,26,13,17,28.30
2006,06,26,13,18,28.30
2006,06,26,13,19,28.30
2006,06,26,13,20,28.30
2006,06,26,13,21,28.20
2006,06,26,13,22,28.20
2006,06,26,13,23,28.30
2006,06,26,13,24,28.30
2006,06,26,13,25,28.30
2006,06,26,13,26,28.30
2006,06,26,13,27,28.20
2006,06,26,13,28,28.20
2006,06,26,13,29,28.10
2006,06,26,13,30,28.20
2006,06,26,13,31,28.10
2006,06,26,13,32,28.10
2006,06,26,13,33,27.90
2006,06,26,13,34,27.90
2006,06,26,13,35,27.80
2006,06,26,13,36,27.90
2006,06,26,13,37,27.90
2006,06,26,13,38,28.00
2006,06,26,13,39,28.10
2006,06,26,13,40,28.20
2006,06,26,13,41,28.20
2006,06,26,13,42,28.30
2006,06,26,13,43,28.40
2006,06,26,13,44,28.40
2006,06,26,13,45,28.50
2006,06,26,13,46,28.60
2006,06,26,13,47,28.60
2006,06,26,13,48,28.60
2006,06,26,13,49,28.50
2006,06,26,13,50,28.60
2006,06,26,13,51,28.60
2006,06,26,13,52,28.50
2006,06,26,13,53,28.40
2006,06,26,13,54,28.40
2006,06,26,13,55,28.40
2006,06,26,13,56,28.40
2006,06,26,13,57,28.30
2006,06,26,13,58,28.30
2006,06,26,13,59,28.30
2006,06,26,14,00,28.30
2006,06,26,14,01,28.40
2006,06,26,14,02,28.40
2006,06,26,14,03,28.40
2006,06,26,14,04,28.40
2006,06,26,14,05,28.40
2006,06,26,14,06,28.40
2006,06,26,14,07,28.40
2006,06,26,14,08,28.40
2006,06,26,14,09,28.40
2006,06,26,14,10,28.50
2006,06,26,14,11,28.60
2006,06,26,14,12,28.60
2006,06,26,14,13,28.70
2006,06,26,14,14,28.80
2006,06,26,14,15,28.90
2006,06,26,14,16,28.90
2006,06,26,14,17,28.90
2006,06,26,14,18,28.90
2006,06,26,14,19,28.90
2006,06,26,14,20,28.90
2006,06,26,14,21,28.90
2006,06,26,14,22,28.90
2006,06,26,14,23,28.90
2006,06,26,14,24,28.90
2006,06,26,14,25,28.90
2006,06,26,14,26,28.90
2006,06,26,14,27,28.90
2006,06,26,14,28,29.00
2006,06,26,14,29,29.10
2006,06,26,14,30,29.00
2006,06,26,14,31,29.00
2006,06,26,14,32,29.00
2006,06,26,14,33,29.00
2006,06,26,14,34,29.10
2006,06,26,14,35,29.10
2006,06,26,14,36,29.10
2006,06,26,14,37,29.20
2006,06,26,14,38,29.30
2006,06,26,14,39,29.30
2006,06,26,14,40,29.30
2006,06,26,14,41,29.30
2006,06,26,14,42,29.30
2006,06,26,14,43,29.40
2006,06,26,14,44,29.40
2006,06,26,14,45,29.50
2006,06,26,14,46,29.60
2006,06,26,14,47,29.50
2006,06,26,14,48,29.50
2006,06,26,14,49,29.50
2006,06,26,14,50,29.50
2006,06,26,14,51,29.50
2006,06,26,14,52,29.50
2006,06,26,14,53,29.50
2006,06,26,14,54,29.50
2006,06,26,14,55,29.50
2006,06,26,14,56,29.50
2006,06,26,14,57,29.50
2006,06,26,14,58,29.50
2006,06,26,14,59,29.40
2006,06,26,15,00,29.30
2006,06,26,15,01,29.20
2006,06,26,15,02,29.20
2006,06,26,15,03,29.20
2006,06,26,15,04,29.30
2006,06,26,15,05,29.30
2006,06,26,15,06,29.20
2006,06,26,15,07,29.20
2006,06,26,15,08,29.10
2006,06,26,15,09,29.10
2006,06,26,15,10,29.00
2006,06,26,15,11,28.90
2006,06,26,15,12,28.80
2006,06,26,15,13,28.80
2006,06,26,15,14,28.80
2006,06,26,15,15,28.80
2006,06,26,15,16,28.80
2006,06,26,15,17,28.70
2006,06,26,15,18,28.70
2006,06,26,15,19,28.70
2006,06,26,15,20,28.70
2006,06,26,15,21,28.80
2006,06,26,15,22,28.80
2006,06,26,15,23,28.80
2006,06,26,15,24,28.90
2006,06,26,15,25,28.90
2006,06,26,15,26,29.00
2006,06,26,15,27,29.10
2006,06,26,15,28,29.20
2006,06,26,15,29,29.30
2006,06,26,15,30,29.30
2006,06,26,15,31,29.30
2006,06,26,15,32,29.30
2006,06,26,15,33,29.30
2006,06,26,15,34,29.30
2006,06,26,15,35,29.40
2006,06,26,15,36,29.40
2006,06,26,15,37,29.50
2006,06,26,15,38,29.50
2006,06,26,15,39,29.50
2006,06,26,15,40,29.60
2006,06,26,15,41,29.70
2006,06,26,15,42,29.80
2006,06,26,15,43,29.90
2006,06,26,15,44,29.90
2006,06,26,15,45,29.90
2006,06,26,15,46,29.90
2006,06,26,15,47,29.80
2006,06,26,15,48,29.90
2006,06,26,15,49,30.00
2006,06,26,15,50,30.10
2006,06,26,15,51,30.20
2006,06,26,15,52,30.30
2006,06,26,15,53,30.40
2006,06,26,15,54,30.30
2006,06,26,15,55,30.30
2006,06,26,15,56,30.20
2006,06,26,15,57,30.20
2006,06,26,15,58,30.20
2006,06,26,15,59,30.20
2006,06,26,16,00,30.20
2006,06,26,16,01,30.20
2006,06,26,16,02,30.30
2006,06,26,16,03,30.30
2006,06,26,16,04,30.30
2006,06,26,16,05,30.20
2006,06,26,16,06,30.20
2006,06,26,16,07,30.30
2006,06,26,16,08,30.40
2006,06,26,16,09,30.40
2006,06,26,16,10,30.40
2006,06,26,16,11,30.30
2006,06,26,16,12,30.30
2006,06,26,16,13,30.30
2006,06,26,16,14,30.30
2006,06,26,16,15,30.30
2006,06,26,16,16,30.30
2006,06,26,16,17,30.30
2006,06,26,16,18,30.30
2006,06,26,16,19,30.30
2006,06,26,16,20,30.30
2006,06,26,16,21,30.40
2006,06,26,16,22,30.40
2006,06,26,16,23,30.60
2006,06,26,16,24,30.60
2006,06,26,16,25,30.70
2006,06,26,16,26,30.80
2006,06,26,16,27,30.80
2006,06,26,16,28,30.80
2006,06,26,16,29,30.80
2006,06,26,16,30,30.80
2006,06,26,16,31,30.80
2006,06,26,16,32,30.70
2006,06,26,16,33,30.70
2006,06,26,16,34,30.60
2006,06,26,16,35,30.60
2006,06,26,16,36,30.70
2006,06,26,16,37,30.80
2006,06,26,16,38,30.80
2006,06,26,16,39,30.80
2006,06,26,16,40,30.90
2006,06,26,16,41,30.90
2006,06,26,16,42,30.90
2006,06,26,16,43,31.00
2006,06,26,16,44,31.20
2006,06,26,16,45,31.20
2006,06,26,16,46,31.40
2006,06,26,16,47,31.50
2006,06,26,16,48,31.60
2006,06,26,16,49,31.80
2006,06,26,16,50,32.00
2006,06,26,16,51,32.10
2006,06,26,16,52,32.10
2006,06,26,16,53,32.10
2006,06,26,16,54,32.00
2006,06,26,16,55,31.90
2006,06,26,16,56,32.00
2006,06,26,16,57,32.10
2006,06,26,16,58,32.10
2006,06,26,16,59,32.10
2006,06,26,17,00,32.10
2006,06,26,17,01,32.00
2006,06,26,17,02,31.90
2006,06,26,17,03,31.60
2006,06,26,17,04,31.50
2006,06,26,17,05,31.40
2006,06,26,17,06,31.40
2006,06,26,17,07,31.40
2006,06,26,17,08,31.40
2006,06,26,17,09,31.30
2006,06,26,17,10,31.40
2006,06,26,17,11,31.40
2006,06,26,17,12,31.30
2006,06,26,17,13,31.30
2006,06,26,17,14,31.30
2006,06,26,17,15,31.30
2006,06,26,17,16,31.40
2006,06,26,17,17,31.40
2006,06,26,17,18,31.40
2006,06,26,17,19,31.50